Date,TemperatureHighF,TemperatureAvgF,TemperatureLowF,DewpointHighF,DewpointAvgF,DewpointLowF,HumidityHigh,HumidityAvg,HumidityLow,PressureMaxIn,PressureMinIn,WindSpeedMaxMPH,WindSpeedAvgMPH,GustSpeedMaxMPH,PrecipitationSumIn
2014-1-1,31.4,23.7,16.5,16.5,11.4,7.8,76,59,43,30.31,30.11,0,0,0,0.00
2014-1-2,31.1,27.4,22.9,31.1,26.1,13.0,100,95,62,30.27,29.60,0,0,0,0.00
2014-1-3,27.1,13.6,0.8,26.9,12.7,-1.4,100,96,91,30.36,29.42,0,0,0,0.00
2014-1-4,36.1,16.0,-10.3,32.3,11.9,-12.9,94,84,56,30.48,30.20,0,0,0,0.00
2014-1-5,48.7,32.6,16.5,48.0,29.5,-99.9,100,91,77,30.26,29.85,0,-11,0,0.00
2014-1-6,58.7,46.4,29.8,58.6,45.7,19.0,100,97,63,29.86,29.26,0,0,0,0.00
2014-1-7,29.6,16.0,8.7,23.0,2.3,-6.4,95,54,41,30.22,29.44,0,0,0,0.00
2014-1-8,25.1,16.5,8.1,6.5,3.0,-5.1,66,55,43,30.41,30.20,0,0,0,0.00
2014-1-9,31.3,20.1,9.8,12.8,8.8,5.8,86,62,41,30.59,30.37,0,0,0,0.00
2014-1-10,42.0,28.9,8.4,42.0,27.1,5.2,100,93,78,30.55,30.20,0,0,0,0.00
2014-1-11,60.7,51.4,42.1,60.5,51.1,42.1,100,99,91,30.19,29.26,0,0,0,0.00
2014-1-12,50.5,42.9,33.8,50.3,34.8,25.5,100,74,54,29.91,29.25,0,0,0,0.00
2014-1-13,51.4,41.5,25.4,47.2,36.9,23.9,96,83,67,30.09,29.86,0,0,0,0.00
2014-1-14,55.3,50.7,43.9,53.7,48.7,43.4,100,93,77,29.87,29.51,0,0,0,0.00
2014-1-15,51.0,39.3,30.5,43.4,37.2,30.5,100,92,68,29.97,29.68,0,0,0,0.00
2014-1-16,42.7,39.1,34.1,42.6,39.1,34.1,100,100,98,29.85,29.76,0,0,0,0.00
2014-1-17,43.6,36.7,28.2,40.4,34.5,27.6,100,92,70,29.92,29.84,0,0,0,0.00
2014-1-18,40.8,36.9,33.2,40.6,36.5,33.2,100,98,93,29.85,29.50,0,0,0,0.00
2014-1-19,36.5,32.9,29.9,33.2,28.9,25.5,100,85,69,29.66,29.52,0,0,0,0.00
2014-1-20,47.2,37.2,30.8,33.6,28.8,18.5,90,71,52,29.77,29.45,0,0,0,0.00
2014-1-21,31.2,21.6,16.1,23.1,12.5,-99.9,98,71,37,29.96,29.66,0,-5,0,0.00
2014-1-22,23.1,16.1,0.6,22.6,13.9,-3.7,98,91,63,29.82,29.46,0,0,0,0.00
2014-1-23,24.5,10.8,-3.8,8.5,0.2,-7.2,87,63,39,30.11,29.81,0,0,0,0.00
2014-1-24,20.2,12.9,6.3,12.7,-0.3,-3.1,80,55,37,30.19,30.02,0,0,0,0.00
2014-1-25,41.5,32.5,19.6,32.8,26.3,14.0,98,78,66,30.02,29.28,0,0,0,0.00
2014-1-26,26.9,21.4,17.1,22.9,9.7,-0.8,84,61,37,29.85,29.28,0,0,0,0.00
2014-1-27,51.8,37.1,23.0,43.2,29.1,2.1,92,74,33,29.91,29.49,0,0,0,0.00
2014-1-28,23.7,18.6,12.9,4.3,-3.0,-9.6,50,38,24,30.23,29.89,0,0,0,0.00
2014-1-29,27.1,18.5,13.3,19.8,9.5,-1.1,93,69,43,30.16,29.91,0,0,0,0.00
2014-1-30,29.6,18.8,7.6,19.6,7.7,-0.5,95,63,37,30.37,30.15,0,0,0,0.00
2014-1-31,40.1,33.0,21.5,34.7,27.4,19.2,95,80,49,30.15,29.96,0,0,0,0.00
2014-2-1,45.8,35.7,28.6,34.2,26.7,23.3,93,71,43,30.27,29.96,0,0,0,0.00
2014-2-2,41.1,38.3,36.2,40.7,37.5,34.2,100,96,89,29.97,29.81,0,0,0,0.00
2014-2-3,38.8,34.0,30.5,36.6,33.0,30.4,100,96,83,30.18,29.96,0,0,0,0.00
2014-2-4,40.4,27.5,16.5,34.2,25.4,16.2,99,92,69,30.36,30.18,0,0,0,0.00
2014-2-5,34.1,30.7,25.0,34.1,30.4,24.7,100,98,92,30.23,29.48,0,0,0,0.00
2014-2-6,35.1,25.8,15.5,28.9,22.3,14.5,99,87,69,30.16,29.80,0,0,0,0.00
2014-2-7,34.3,23.3,8.7,20.2,14.7,7.3,95,71,44,30.19,30.08,0,0,0,0.00
2014-2-8,31.6,25.3,18.5,19.8,13.1,4.9,85,60,35,30.22,30.02,0,0,0,0.00
2014-2-9,33.9,26.7,21.6,26.7,21.7,11.9,98,81,58,30.05,29.87,0,0,0,0.00
2014-2-10,34.9,23.3,7.7,26.2,15.4,3.5,98,73,42,30.14,29.82,0,0,0,0.00
2014-2-11,30.5,15.6,3.7,11.7,5.9,-0.3,90,67,38,30.34,30.13,0,0,0,0.00
2014-2-12,30.6,16.1,1.6,19.4,9.6,-2.8,89,76,60,30.46,30.32,0,0,0,0.00
2014-2-13,40.4,34.2,19.0,40.4,32.9,16.2,100,95,85,30.32,28.86,0,0,0,0.00
2014-2-14,39.5,35.1,31.5,39.3,30.8,-99.9,100,85,67,29.67,28.71,0,-2,0,0.00
2014-2-15,36.6,30.2,21.2,32.2,27.8,20.2,100,91,65,29.78,29.25,0,0,0,0.00
2014-2-16,36.8,27.3,20.2,32.4,24.0,16.6,100,88,62,29.87,29.28,0,0,0,0.00
2014-2-17,33.3,18.8,2.8,16.7,9.3,0.6,91,68,41,30.31,29.86,0,0,0,0.00
2014-2-18,36.7,24.9,2.2,36.7,22.9,-0.6,100,92,74,30.31,29.74,0,0,0,0.00
2014-2-19,45.9,32.9,17.4,46.0,31.0,16.8,100,93,71,30.03,29.57,0,0,0,0.00
2014-2-20,50.8,37.3,27.7,38.3,31.7,27.7,100,82,48,30.16,29.75,0,0,0,0.00
2014-2-21,57.3,43.5,33.7,57.3,43.3,32.8,100,99,95,30.09,29.62,0,0,0,0.00
2014-2-22,47.7,38.4,29.0,42.0,33.9,29.0,100,85,56,29.93,29.78,0,0,0,0.00
2014-3-15,50.2,42.1,29.4,45.6,36.7,26.9,95,81,58,29.90,29.62,0,0,0,0.00
2014-3-16,40.4,33.5,28.7,31.8,13.4,4.3,91,44,27,30.09,29.81,0,0,0,0.00
2014-3-17,30.0,22.8,10.9,19.5,11.9,4.7,87,63,37,30.10,29.94,0,0,0,0.00
2014-3-18,38.9,23.9,8.1,23.5,15.6,5.4,90,72,47,30.27,30.09,0,0,0,0.00
2014-3-19,47.0,32.3,15.3,36.8,24.6,12.9,94,75,40,30.30,29.87,0,0,0,0.00
2014-3-20,54.9,44.8,34.3,49.2,39.6,28.9,100,83,48,29.91,29.54,0,0,0,0.00
2014-3-21,48.7,39.8,30.3,31.8,25.7,21.4,88,58,40,29.97,29.69,0,0,0,0.00
2014-3-22,58.8,37.9,20.2,44.9,29.2,17.3,89,72,44,30.00,29.60,0,0,0,0.00
2014-3-23,46.7,35.9,25.2,30.3,21.2,8.8,88,58,23,29.94,29.80,0,0,0,0.00
2014-3-24,35.2,25.2,14.2,11.2,3.5,-1.0,72,40,23,30.08,29.94,0,0,0,0.00
2014-3-25,38.9,27.3,8.9,18.3,10.3,3.5,84,51,27,30.11,29.78,0,0,0,0.00
2014-3-26,34.3,29.6,24.6,28.7,18.6,3.1,98,67,33,29.90,29.40,0,0,0,0.00
2014-3-27,39.5,30.1,19.3,30.1,12.6,0.5,81,49,25,30.25,29.90,0,0,0,0.00
2014-3-28,52.1,43.2,35.2,45.6,39.3,30.0,98,86,68,30.22,29.93,0,0,0,0.00
2014-3-29,53.4,43.1,33.3,48.7,41.6,33.2,100,94,78,30.16,29.98,0,0,0,0.00
2014-3-30,56.5,46.5,36.5,56.5,46.5,36.5,100,100,99,29.85,29.46,0,0,0,0.00
2014-3-31,39.9,35.6,32.9,39.9,35.5,32.9,100,100,94,29.88,29.54,0,0,0,0.00
2014-4-1,51.9,37.1,26.4,40.8,32.6,25.0,99,84,53,30.04,29.86,0,0,0,0.00
2014-4-2,61.1,37.3,21.7,41.5,30.4,21.4,99,79,41,30.07,29.95,0,0,0,0.00
2014-4-3,59.2,37.7,21.3,40.7,29.2,20.8,99,76,42,30.05,29.96,0,0,0,0.00
2014-4-4,51.0,39.9,25.8,37.8,32.2,23.3,95,75,48,30.08,29.76,0,0,0,0.00
2014-4-5,55.0,44.3,38.3,47.4,38.9,26.0,100,83,51,29.88,29.56,0,0,0,0.00
2014-4-6,50.2,39.7,32.1,36.7,29.2,25.0,96,67,44,30.13,29.87,0,0,0,0.00
2014-4-7,59.3,44.7,29.5,46.8,34.1,20.7,98,71,27,30.17,29.82,0,0,0,0.00
2014-4-8,58.1,48.6,40.3,58.1,48.1,39.1,100,98,74,29.82,29.32,0,0,0,0.00
2014-4-9,60.6,46.0,32.3,43.5,36.0,19.5,91,69,45,29.89,29.45,0,0,0,0.00
2014-4-10,52.0,39.1,22.4,42.0,28.1,18.5,85,66,36,30.13,29.89,0,0,0,0.00
2014-4-11,60.2,51.0,46.5,48.6,44.5,41.8,89,78,62,29.99,29.87,0,0,0,0.00
2014-4-12,69.9,52.9,41.3,49.4,40.3,30.1,97,68,23,30.17,29.88,0,0,0,0.00
2014-4-13,67.5,54.3,36.2,54.6,43.2,30.5,97,69,28,30.21,30.00,0,0,0,0.00
2014-4-14,64.5,56.9,49.0,58.1,53.4,49.0,100,88,74,30.02,29.89,12,3,26,0.00
2014-4-15,70.2,61.9,53.5,61.4,58.1,51.4,99,87,70,29.90,29.54,19,10,30,0.71
2014-4-16,53.0,38.3,29.8,52.8,29.7,21.7,99,74,40,30.51,29.59,8,2,20,0.00
2014-4-17,41.5,36.0,28.1,30.8,26.9,23.1,85,69,61,30.70,30.50,11,3,19,0.00
2014-4-18,44.9,37.7,26.1,37.6,32.5,24.3,94,81,70,30.57,30.22,8,1,16,0.00
2014-4-19,64.0,47.9,33.5,43.6,37.0,29.9,96,70,37,30.32,30.09,8,2,14,0.00
2014-4-20,53.9,42.2,28.2,36.1,32.3,24.9,91,69,40,30.43,30.27,8,1,15,0.00
2014-4-21,61.9,45.2,27.9,46.8,38.7,27.3,97,80,36,30.27,29.81,8,2,15,0.00
2014-4-22,64.3,49.0,38.6,50.8,45.1,38.3,100,87,60,29.82,29.43,10,2,16,0.00
2014-4-23,57.1,49.5,46.2,56.4,48.6,36.1,100,97,63,29.50,29.28,7,1,18,2.84
2014-4-24,59.6,50.2,41.4,36.4,29.4,21.8,69,45,30,29.83,29.50,10,3,20,0.00
2014-4-25,60.2,47.4,31.2,39.0,31.9,27.2,87,56,37,29.93,29.81,8,2,18,0.00
2014-4-26,48.8,44.4,34.7,43.2,39.2,33.8,96,82,63,29.81,29.66,7,1,13,0.00
2014-4-27,49.3,41.8,35.8,42.7,39.5,34.7,98,91,77,29.96,29.77,6,0,9,0.00
2014-4-28,57.8,44.8,34.6,42.1,39.0,33.8,98,81,54,30.12,29.90,11,2,20,0.00
2014-4-29,46.3,43.5,40.9,39.9,37.9,35.1,90,80,69,30.43,30.12,11,4,20,0.00
2014-4-30,50.1,44.2,40.1,45.5,40.1,35.3,98,85,71,30.44,30.10,8,2,15,0.00
2014-5-1,61.6,53.4,45.8,61.5,53.3,45.5,100,100,98,30.10,29.60,13,4,18,1.42
2014-5-2,67.0,53.9,46.2,52.8,48.0,43.4,100,82,51,29.75,29.60,9,1,16,0.00
2014-5-3,68.1,53.0,35.8,50.0,42.0,35.0,97,70,38,29.81,29.69,10,2,17,0.00
2014-5-4,61.9,53.2,47.6,50.5,45.0,36.7,96,74,55,29.70,29.46,11,2,20,0.00
2014-5-5,68.2,53.5,39.8,53.2,45.3,39.0,98,74,50,29.78,29.54,5,1,13,0.00
2014-5-6,65.6,50.3,33.5,45.8,39.0,32.1,99,68,38,29.96,29.75,7,1,11,0.00
2014-5-7,66.5,50.1,31.9,41.6,36.3,29.7,93,62,36,30.14,29.95,9,2,17,0.00
2014-5-8,66.7,52.8,40.1,55.1,48.5,39.5,99,86,55,30.13,30.03,8,2,14,0.00
2014-5-9,60.5,56.0,50.1,57.3,51.6,40.0,99,86,52,30.16,30.01,6,1,11,0.00
2014-5-10,65.5,60.3,54.8,62.2,57.7,53.4,98,91,79,30.02,29.73,10,4,17,0.00
2014-5-11,73.6,61.1,48.1,58.6,51.2,46.4,99,72,45,29.96,29.74,10,2,19,0.00
2014-5-12,80.7,60.1,43.7,55.1,48.1,42.5,95,69,29,30.05,29.95,10,2,16,0.00
2014-5-13,55.9,50.3,45.0,52.6,44.7,41.8,91,80,67,30.26,29.96,10,3,17,0.00
2014-5-14,69.2,55.8,43.6,54.8,49.2,41.7,94,79,50,30.26,30.20,7,1,12,0.00
2014-5-15,77.5,66.0,56.0,65.4,60.9,54.4,94,83,67,30.24,30.14,10,3,16,0.00
2014-5-16,76.5,65.6,59.0,63.5,61.0,57.8,96,85,65,30.16,29.94,13,5,27,0.00
2014-5-17,70.3,61.9,49.1,64.1,57.9,47.5,100,87,63,29.98,29.80,12,4,22,0.00
2014-5-18,67.8,55.8,40.4,53.9,46.9,39.6,97,74,50,30.03,29.94,7,1,15,0.00
2014-5-19,67.9,55.0,40.5,52.1,43.3,37.0,94,68,38,30.01,29.91,8,1,16,0.00
2014-5-20,69.8,56.9,45.8,51.9,48.6,43.8,97,76,48,29.96,29.87,8,1,16,0.71
2014-5-21,73.3,57.5,42.1,55.0,50.0,41.4,97,78,48,29.92,29.85,7,1,11,0.00
2014-5-22,68.3,55.7,49.7,56.9,52.9,49.1,99,90,64,29.90,29.79,7,1,13,0.00
2014-5-23,69.2,58.1,51.9,57.3,52.8,50.1,99,83,61,29.88,29.80,6,1,12,0.00
2014-5-24,64.3,55.4,50.4,51.3,49.8,47.9,94,82,62,30.00,29.84,8,2,17,0.00
2014-5-25,69.1,57.1,46.1,56.6,51.8,45.2,97,83,61,30.01,29.95,6,1,12,0.00
2014-5-26,69.4,60.4,52.9,60.3,57.2,52.4,99,89,72,29.99,29.75,5,1,11,0.00
2014-5-27,81.2,62.1,51.8,63.8,56.8,51.3,99,84,54,29.85,29.73,7,1,12,0.00
2014-5-28,52.2,49.5,46.9,52.0,49.0,45.5,99,98,94,30.11,29.79,10,3,19,0.71
2014-5-29,63.2,49.9,37.1,50.2,43.7,35.9,100,81,42,30.16,30.08,7,1,12,0.00
2014-5-30,69.9,51.1,35.2,52.0,44.3,34.5,97,80,48,30.11,29.93,6,1,10,0.00
2014-5-31,62.5,53.5,40.8,52.4,48.9,39.9,97,85,62,30.20,29.96,10,2,20,0.00
2014-6-1,73.1,57.9,38.1,51.5,43.5,36.9,98,64,32,30.24,30.17,7,1,12,0.00
2014-6-2,75.2,60.0,44.2,57.4,51.2,43.2,98,75,51,30.20,29.98,7,2,12,0.00
2014-6-3,77.1,62.9,49.0,61.4,53.3,46.3,98,72,50,29.99,29.84,9,2,16,0.00
2014-6-4,68.7,58.9,53.6,61.4,56.3,49.9,98,91,75,29.85,29.70,4,0,10,0.00
2014-6-5,62.9,59.0,55.1,62.7,59.0,54.7,100,99,98,29.72,29.49,6,1,17,0.71
2014-6-6,76.9,64.1,49.2,61.7,57.6,49.2,100,81,51,29.80,29.63,5,1,11,0.00
2014-6-7,81.7,64.9,48.5,64.0,56.8,48.0,99,77,49,29.86,29.80,6,1,13,0.00
2014-6-8,86.8,69.2,52.9,64.0,58.3,52.4,98,71,41,29.87,29.80,5,0,9,0.00
2014-6-9,76.1,64.8,55.6,64.0,61.0,55.1,99,87,63,29.93,29.85,4,1,10,0.00
2014-6-10,70.8,64.9,59.1,69.0,63.1,57.8,99,93,89,30.01,29.88,7,1,13,0.71
2014-6-11,72.1,62.4,55.1,59.3,56.2,50.1,95,80,62,30.09,30.00,8,2,15,0.00
2014-6-12,71.0,62.5,53.9,62.3,57.4,49.6,92,83,74,30.08,29.98,9,2,15,0.00
2014-6-13,69.5,64.4,59.7,69.3,64.0,58.6,100,98,88,29.99,29.70,7,2,16,1.89
2014-6-14,75.9,66.3,60.1,73.4,65.0,56.9,100,95,78,29.82,29.72,4,0,8,0.00
2014-6-15,60.2,55.1,52.4,57.0,53.8,51.9,98,95,87,29.86,29.82,1,0,4,0.00
2014-7-7,77.6,71.5,68.4,70.6,68.4,67.1,96,90,80,29.75,29.68,9,3,19,0.00
2014-7-8,80.9,73.5,68.1,73.8,70.7,67.4,97,91,78,29.78,29.67,9,3,19,0.00
2014-7-9,81.3,72.3,68.4,73.3,69.6,66.4,99,91,74,29.88,29.66,9,2,23,0.00
2014-7-10,84.1,73.6,62.7,73.8,66.8,61.3,100,81,51,30.08,29.88,6,0,16,0.71
2014-7-11,83.5,69.9,61.6,67.5,63.6,60.3,98,82,54,30.16,30.06,4,1,10,0.00
2014-7-12,81.4,69.6,56.0,68.8,62.5,55.7,99,80,60,30.16,30.08,6,1,13,0.00
2014-7-13,77.8,69.4,66.7,69.7,67.1,65.7,97,92,71,30.10,30.02,5,1,12,0.00
2014-7-14,81.0,73.7,71.6,75.7,71.3,69.3,98,92,82,29.89,29.80,8,3,15,0.00
2014-7-15,78.6,75.3,73.2,75.9,74.3,72.5,100,96,92,29.84,29.72,8,3,17,0.00
2014-7-16,75.8,72.1,69.4,74.8,72.0,69.4,100,99,95,29.78,29.71,8,2,15,2.13
2014-7-17,81.2,71.0,62.5,70.0,66.4,60.9,100,86,59,30.00,29.78,4,0,8,0.00
2014-7-18,81.2,68.2,56.6,66.1,59.7,56.5,99,77,48,30.18,30.00,4,1,10,0.00
2014-7-19,78.1,67.6,55.4,67.3,59.7,54.5,97,77,54,30.19,30.13,6,0,10,0.00
2014-7-20,72.9,66.5,61.3,66.6,62.6,58.0,98,87,79,30.16,30.04,5,1,11,0.00
2014-7-21,76.7,66.6,57.3,67.1,63.1,56.7,98,89,67,30.11,30.04,6,1,12,0.00
2014-7-22,83.1,70.6,54.5,73.6,66.3,54.1,99,87,69,30.09,29.96,6,1,12,0.00
2014-7-23,80.6,73.6,69.0,73.9,69.9,66.2,97,88,74,29.96,29.73,7,2,17,0.00
2014-7-24,77.9,69.3,60.0,73.1,67.5,59.3,99,94,82,29.83,29.67,6,1,14,0.00
2014-7-25,81.1,68.1,57.8,63.9,59.8,54.8,99,78,44,29.94,29.81,6,1,10,0.00
2014-7-26,79.8,69.7,58.9,72.5,66.2,58.4,98,89,74,29.94,29.85,7,1,16,0.00
2014-7-27,79.1,71.6,64.8,71.6,68.4,63.6,97,89,68,29.85,29.62,7,1,13,0.00
2014-7-28,82.4,74.2,69.3,76.4,71.6,67.7,100,91,75,29.65,29.42,8,2,16,0.00
2014-7-29,79.9,70.7,60.2,67.7,63.9,58.7,95,79,58,29.89,29.49,5,1,11,0.00
2014-7-30,82.3,67.2,53.7,66.7,59.6,53.2,98,79,48,30.00,29.88,4,1,12,0.00
2014-7-31,82.0,66.6,55.3,67.5,61.5,54.8,98,85,53,30.12,29.99,6,1,12,0.00
2014-8-1,83.6,71.3,60.6,73.7,66.8,60.4,99,86,71,30.16,30.11,4,1,11,0.00
2014-8-2,67.8,63.8,60.0,66.0,62.7,59.4,100,96,91,30.17,30.01,6,0,12,1.42
2014-8-3,69.0,64.6,61.7,66.8,64.1,61.7,100,98,92,30.07,29.97,3,0,8,0.00
2014-8-4,79.0,70.8,64.5,72.5,68.6,64.6,100,93,78,29.97,29.93,7,1,14,0.00
2014-8-5,85.7,73.8,66.0,75.4,70.5,65.9,100,89,69,29.96,29.82,4,1,10,0.00
2014-8-6,84.1,69.9,61.6,70.9,66.9,61.3,100,91,61,29.82,29.70,4,0,11,0.71
2014-8-7,80.8,64.0,54.1,66.0,60.0,54.0,100,88,54,29.88,29.75,5,0,11,1.18
2014-8-8,81.7,65.8,52.0,67.7,60.4,52.0,100,84,54,29.94,29.86,4,0,10,0.00
2014-8-9,81.6,68.7,54.2,65.6,60.6,54.1,99,78,49,30.03,29.93,6,1,11,0.00
2014-8-10,84.5,70.7,57.6,68.7,61.8,57.3,99,76,43,30.08,30.01,5,0,8,0.00
2014-8-11,84.5,70.3,59.1,67.5,62.3,58.7,98,78,50,30.09,30.04,4,0,11,0.00
2014-8-12,82.4,71.0,59.2,70.6,65.1,59.0,99,83,61,30.07,29.96,7,2,14,0.00
2014-8-13,71.6,69.3,66.6,70.8,67.6,65.2,100,94,84,29.96,29.54,10,3,20,1.18
2014-8-14,77.6,66.3,52.9,68.2,59.6,51.7,99,80,52,29.82,29.58,6,1,14,0.00
2014-8-15,76.5,64.5,52.4,66.4,57.7,51.4,97,80,52,29.89,29.76,7,1,15,0.00
2014-8-16,76.9,67.1,54.3,64.7,60.1,52.7,95,79,65,29.92,29.86,7,1,16,0.00
2014-8-17,79.3,68.5,57.3,69.9,64.9,56.2,98,88,71,29.86,29.67,6,1,12,0.00
2014-8-18,78.5,63.3,51.6,65.4,57.5,51.3,99,83,57,29.81,29.70,5,0,9,0.00
2014-8-19,80.2,62.9,46.6,61.6,55.6,46.3,98,79,49,29.90,29.80,5,0,8,0.00
2014-8-20,80.1,65.3,51.4,65.2,57.9,50.7,98,79,43,29.98,29.88,6,1,10,0.00
2014-8-21,79.9,67.4,57.5,68.8,63.1,56.7,99,87,66,30.01,29.96,6,1,12,0.00
2014-8-22,75.0,66.3,60.5,67.6,63.4,59.7,99,90,70,30.00,29.96,6,1,11,0.00
2014-8-23,73.2,65.1,52.7,64.9,61.0,51.7,97,87,71,30.05,29.98,7,1,16,0.00
2014-8-24,77.1,61.9,48.7,63.8,55.5,48.2,98,82,51,30.06,30.03,7,1,12,0.00
2014-8-25,85.7,69.2,54.6,68.6,61.8,53.6,99,79,50,30.09,30.01,6,1,10,0.00
2014-8-26,84.3,67.7,53.5,67.3,60.0,52.4,97,78,50,30.11,29.99,3,0,9,0.00
2014-8-27,81.5,71.4,59.6,70.9,64.7,59.4,99,80,61,30.01,29.78,7,2,16,0.00
2014-8-28,81.1,71.3,54.3,68.2,62.1,50.1,98,74,49,29.91,29.69,8,1,16,0.00
2014-8-29,73.2,60.3,46.9,59.7,53.6,46.2,97,80,55,30.22,29.91,7,1,14,0.00
2014-8-30,75.9,61.9,46.4,62.1,55.4,45.4,97,81,53,30.25,30.09,5,1,11,0.00
2014-8-31,78.3,71.8,61.1,72.1,69.1,60.3,99,91,76,30.10,29.89,6,2,17,0.71
2014-9-1,82.0,73.6,70.2,77.5,72.2,70.1,100,95,81,29.93,29.83,6,1,14,0.00
2014-9-2,87.9,74.9,69.7,79.7,73.1,69.8,100,94,74,29.88,29.70,5,1,11,0.00
2014-9-3,85.0,73.3,59.7,71.7,68.4,58.8,97,86,50,30.02,29.65,4,1,11,0.00
2014-9-4,85.1,69.6,54.2,69.6,61.9,53.9,99,79,44,30.12,30.02,4,0,11,0.00
2014-9-5,81.6,73.5,65.5,74.6,71.1,65.6,100,92,77,30.11,29.95,6,2,15,0.00
2014-9-6,78.2,74.0,72.0,75.7,73.5,69.9,100,98,91,29.94,29.72,6,2,13,0.00
2014-9-7,75.9,66.4,52.2,70.2,61.9,51.7,100,86,64,30.14,29.82,6,1,12,0.00
2014-9-8,75.3,62.6,49.2,65.2,55.8,48.8,99,80,55,30.29,30.14,7,1,13,0.00
2014-9-9,74.3,65.8,60.2,62.9,59.2,53.7,92,79,62,30.27,30.08,7,1,12,0.00
2014-9-10,74.2,67.0,56.8,66.0,63.1,56.3,98,88,69,30.08,29.97,6,1,12,0.00
2014-9-11,78.9,67.5,53.9,70.4,64.1,53.6,99,89,68,29.98,29.73,8,1,19,0.00
2014-9-12,70.8,62.1,49.2,70.3,56.5,48.4,98,82,61,30.15,29.80,7,1,12,0.00
2014-9-13,73.1,57.9,45.5,61.3,53.7,44.9,99,87,52,30.18,30.01,6,1,11,0.00
2014-9-14,66.3,57.5,48.4,61.3,52.7,46.3,99,85,60,30.14,30.01,6,1,11,0.00
2014-9-15,71.8,57.4,45.3,55.9,50.0,44.6,98,78,50,30.16,30.01,5,1,8,0.00
2014-9-16,73.6,60.5,48.4,59.9,53.6,47.3,97,79,49,30.04,29.86,4,0,7,0.00
2014-9-17,74.6,56.7,43.9,57.8,50.0,43.2,98,81,47,29.95,29.85,4,0,7,0.00
2014-9-18,76.0,59.2,42.3,55.8,49.5,41.3,97,73,42,30.03,29.86,5,1,13,0.00
2014-9-19,61.2,52.7,35.8,52.4,41.8,33.5,91,67,49,30.37,30.03,7,2,14,0.00
2014-9-20,73.9,56.0,35.0,60.8,49.2,33.7,95,79,55,30.34,30.04,6,1,10,0.00
2014-9-21,79.8,70.3,62.7,73.4,68.0,60.2,100,92,79,30.04,29.47,7,1,14,0.00
2014-9-22,77.4,67.2,52.4,68.0,57.5,41.6,100,74,42,30.01,29.47,6,1,13,0.00
2014-9-23,69.5,53.3,37.7,51.5,44.9,36.2,95,75,47,30.36,30.01,4,0,10,0.00
2014-9-24,71.0,57.0,43.2,60.6,52.3,42.3,98,85,61,30.53,30.36,6,1,12,0.00
2014-9-25,62.1,59.6,53.7,61.2,58.4,51.3,99,96,87,30.47,30.12,5,1,11,0.00
2014-9-26,69.3,59.8,47.3,61.7,56.6,46.7,100,90,62,30.12,30.05,7,1,14,0.71
2014-9-27,82.2,61.6,44.0,64.4,55.0,43.7,99,82,48,30.10,30.04,4,0,10,0.00
2014-9-28,80.3,65.5,52.1,68.7,61.3,51.6,99,87,62,30.10,29.93,5,1,13,0.00
2014-9-29,76.1,66.8,61.3,70.6,65.0,60.9,100,94,81,29.93,29.84,4,0,8,0.00
2014-9-30,61.3,58.7,57.6,61.0,58.7,57.6,100,99,98,29.95,29.89,4,1,13,0.00
2014-10-1,61.7,59.7,58.7,61.7,59.7,58.7,100,100,100,29.97,29.89,8,2,15,2.84
2014-10-2,59.5,57.0,53.4,59.5,56.4,51.9,100,98,88,30.06,29.96,6,2,16,0.71
2014-10-3,58.6,55.3,46.8,56.2,54.0,46.8,100,95,88,30.04,29.82,7,1,13,0.00
2014-10-4,66.3,60.6,55.8,66.0,60.1,55.8,100,98,90,29.82,29.46,5,1,12,0.71
2014-10-5,64.8,55.2,41.3,64.8,49.3,40.3,100,82,50,29.91,29.47,6,1,12,0.00
2014-10-6,68.4,53.3,36.2,57.8,45.8,35.7,99,78,46,30.10,29.90,5,1,9,0.00
2014-10-7,73.9,66.4,59.5,65.2,61.1,57.5,93,83,67,30.10,29.93,10,3,19,0.00
2014-10-8,71.7,65.8,60.6,66.7,62.7,56.1,99,89,74,29.93,29.67,8,2,20,0.71
2014-10-9,65.2,23.7,40.8,56.1,21.4,39.8,97,38,56,29.91,29.79,5,0,12,0.00
2014-10-10,-200.0,0.0,200.0,-99.9,0.0,200.0,0,0,100,0.00,-26.25,0,0,0,0.00
2014-10-11,-200.0,0.0,200.0,-99.9,0.0,200.0,0,0,100,0.00,-26.25,0,0,0,0.00
2014-10-12,-200.0,0.0,200.0,-99.9,0.0,200.0,0,0,100,0.00,-26.25,0,0,0,0.00
2014-10-13,-200.0,0.0,200.0,-99.9,0.0,200.0,0,0,100,0.00,-26.25,0,0,0,0.00
2014-10-14,-200.0,0.0,200.0,-99.9,0.0,200.0,0,0,100,0.00,-26.25,0,0,0,0.00
2014-10-15,-200.0,0.0,200.0,-99.9,0.0,200.0,0,0,100,0.00,-26.25,0,0,0,0.00
2014-10-16,-200.0,0.0,200.0,-99.9,0.0,200.0,0,0,100,0.00,-26.25,0,0,0,0.00
2014-10-17,-200.0,0.0,200.0,-99.9,0.0,200.0,0,0,100,0.00,-26.25,0,0,0,0.00
2014-10-18,-200.0,0.0,200.0,-99.9,0.0,200.0,0,0,100,0.00,-26.25,0,0,0,0.00
2014-10-19,-200.0,0.0,200.0,-99.9,0.0,200.0,0,0,100,0.00,-26.25,0,0,0,0.00
2014-10-20,-200.0,0.0,200.0,-99.9,0.0,200.0,0,0,100,0.00,-26.25,0,0,0,0.00
2014-10-21,-200.0,0.0,200.0,-99.9,0.0,200.0,0,0,100,0.00,-26.25,0,0,0,0.00
2014-10-22,-200.0,0.0,200.0,-99.9,0.0,200.0,0,0,100,0.00,-26.25,0,0,0,0.00
2014-10-23,-200.0,0.0,200.0,-99.9,0.0,200.0,0,0,100,0.00,-26.25,0,0,0,0.00
2014-10-24,-200.0,0.0,200.0,-99.9,0.0,200.0,0,0,100,0.00,-26.25,0,0,0,0.00
2014-10-25,-200.0,0.0,200.0,-99.9,0.0,200.0,0,0,100,0.00,-26.25,0,0,0,0.00
2014-10-26,-200.0,0.0,200.0,-99.9,0.0,200.0,0,0,100,0.00,-26.25,0,0,0,0.00
2014-10-27,-200.0,0.0,200.0,-99.9,0.0,200.0,0,0,100,0.00,-26.25,0,0,0,0.00
2014-10-28,-200.0,0.0,200.0,-99.9,0.0,200.0,0,0,100,0.00,-26.25,0,0,0,0.00
2014-10-29,-200.0,0.0,200.0,-99.9,0.0,200.0,0,0,100,0.00,-26.25,0,0,0,0.00
2014-10-30,-200.0,0.0,200.0,-99.9,0.0,200.0,0,0,100,0.00,-26.25,0,0,0,0.00
2014-10-31,-200.0,0.0,200.0,-99.9,0.0,200.0,0,0,100,0.00,-26.25,0,0,0,0.00
2014-11-1,-200.0,0.0,200.0,-99.9,0.0,200.0,0,0,100,0.00,-26.25,0,0,0,0.00
2014-11-2,-200.0,0.0,200.0,-99.9,0.0,200.0,0,0,100,0.00,-26.25,0,0,0,0.00
2014-11-3,-200.0,0.0,200.0,-99.9,0.0,200.0,0,0,100,0.00,-26.25,0,0,0,0.00
2014-11-4,-200.0,0.0,200.0,-99.9,0.0,200.0,0,0,100,0.00,-26.25,0,0,0,0.00
2014-11-5,-200.0,0.0,200.0,-99.9,0.0,200.0,0,0,100,0.00,-26.25,0,0,0,0.00
2014-11-6,-200.0,0.0,200.0,-99.9,0.0,200.0,0,0,100,0.00,-26.25,0,0,0,0.00
2014-11-7,-200.0,0.0,200.0,-99.9,0.0,200.0,0,0,100,0.00,-26.25,0,0,0,0.00
2014-11-8,-200.0,0.0,200.0,-99.9,0.0,200.0,0,0,100,0.00,-26.25,0,0,0,0.00
2014-11-9,-200.0,0.0,200.0,-99.9,0.0,200.0,0,0,100,0.00,-26.25,0,0,0,0.00
2014-11-10,-200.0,0.0,200.0,-99.9,0.0,200.0,0,0,100,0.00,-26.25,0,0,0,0.00
2014-11-11,-200.0,0.0,200.0,-99.9,0.0,200.0,0,0,100,0.00,-26.25,0,0,0,0.00
2014-11-12,-200.0,0.0,200.0,-99.9,0.0,200.0,0,0,100,0.00,-26.25,0,0,0,0.00
2014-11-13,-200.0,0.0,200.0,-99.9,0.0,200.0,0,0,100,0.00,-26.25,0,0,0,0.00
2014-11-14,-200.0,0.0,200.0,-99.9,0.0,200.0,0,0,100,0.00,-26.25,0,0,0,0.00
2014-11-15,-200.0,0.0,200.0,-99.9,0.0,200.0,0,0,100,0.00,-26.25,0,0,0,0.00
2014-11-16,-200.0,0.0,200.0,-99.9,0.0,200.0,0,0,100,0.00,-26.25,0,0,0,0.00
2014-11-17,-200.0,0.0,200.0,-99.9,0.0,200.0,0,0,100,0.00,-26.25,0,0,0,0.00
2014-11-18,-200.0,0.0,200.0,-99.9,0.0,200.0,0,0,100,0.00,-26.25,0,0,0,0.00
2014-11-19,-200.0,0.0,200.0,-99.9,0.0,200.0,0,0,100,0.00,-26.25,0,0,0,0.00
2014-11-20,-200.0,0.0,200.0,-99.9,0.0,200.0,0,0,100,0.00,-26.25,0,0,0,0.00
2014-11-21,-200.0,0.0,200.0,-99.9,0.0,200.0,0,0,100,0.00,-26.25,0,0,0,0.00
2014-11-22,-200.0,0.0,200.0,-99.9,0.0,200.0,0,0,100,0.00,-26.25,0,0,0,0.00
2014-11-23,-200.0,0.0,200.0,-99.9,0.0,200.0,0,0,100,0.00,-26.25,0,0,0,0.00
2014-11-24,-200.0,0.0,200.0,-99.9,0.0,200.0,0,0,100,0.00,-26.25,0,0,0,0.00
2014-11-25,-200.0,0.0,200.0,-99.9,0.0,200.0,0,0,100,0.00,-26.25,0,0,0,0.00
2014-11-26,-200.0,0.0,200.0,-99.9,0.0,200.0,0,0,100,0.00,-26.25,0,0,0,0.00
2014-11-27,-200.0,0.0,200.0,-99.9,0.0,200.0,0,0,100,0.00,-26.25,0,0,0,0.00
2014-11-28,-200.0,0.0,200.0,-99.9,0.0,200.0,0,0,100,0.00,-26.25,0,0,0,0.00
2014-11-29,-200.0,0.0,200.0,-99.9,0.0,200.0,0,0,100,0.00,-26.25,0,0,0,0.00
2014-11-30,-200.0,0.0,200.0,-99.9,0.0,200.0,0,0,100,0.00,-26.25,0,0,0,0.00
2014-12-1,-200.0,0.0,200.0,-99.9,0.0,200.0,0,0,100,0.00,-26.25,0,0,0,0.00
2014-12-2,-200.0,0.0,200.0,-99.9,0.0,200.0,0,0,100,0.00,-26.25,0,0,0,0.00
2014-12-3,-200.0,0.0,200.0,-99.9,0.0,200.0,0,0,100,0.00,-26.25,0,0,0,0.00
2014-12-4,-200.0,0.0,200.0,-99.9,0.0,200.0,0,0,100,0.00,-26.25,0,0,0,0.00
2014-12-5,-200.0,0.0,200.0,-99.9,0.0,200.0,0,0,100,0.00,-26.25,0,0,0,0.00
2014-12-6,-200.0,0.0,200.0,-99.9,0.0,200.0,0,0,100,0.00,-26.25,0,0,0,0.00
2014-12-7,-200.0,0.0,200.0,-99.9,0.0,200.0,0,0,100,0.00,-26.25,0,0,0,0.00
2014-12-8,-200.0,0.0,200.0,-99.9,0.0,200.0,0,0,100,0.00,-26.25,0,0,0,0.00
2014-12-9,-200.0,0.0,200.0,-99.9,0.0,200.0,0,0,100,0.00,-26.25,0,0,0,0.00
2014-12-10,-200.0,0.0,200.0,-99.9,0.0,200.0,0,0,100,0.00,-26.25,0,0,0,0.00
2014-12-11,-200.0,0.0,200.0,-99.9,0.0,200.0,0,0,100,0.00,-26.25,0,0,0,0.00
2014-12-12,-200.0,0.0,200.0,-99.9,0.0,200.0,0,0,100,0.00,-26.25,0,0,0,0.00
2014-12-13,-200.0,0.0,200.0,-99.9,0.0,200.0,0,0,100,0.00,-26.25,0,0,0,0.00
2014-12-14,-200.0,0.0,200.0,-99.9,0.0,200.0,0,0,100,0.00,-26.25,0,0,0,0.00
2014-12-15,-200.0,0.0,200.0,-99.9,0.0,200.0,0,0,100,0.00,-26.25,0,0,0,0.00
2014-12-16,-200.0,0.0,200.0,-99.9,0.0,200.0,0,0,100,0.00,-26.25,0,0,0,0.00
2014-12-17,-200.0,0.0,200.0,-99.9,0.0,200.0,0,0,100,0.00,-26.25,0,0,0,0.00
2014-12-18,-200.0,0.0,200.0,-99.9,0.0,200.0,0,0,100,0.00,-26.25,0,0,0,0.00
2014-12-19,-200.0,0.0,200.0,-99.9,0.0,200.0,0,0,100,0.00,-26.25,0,0,0,0.00
2014-12-20,-200.0,0.0,200.0,-99.9,0.0,200.0,0,0,100,0.00,-26.25,0,0,0,0.00
2014-12-21,-200.0,0.0,200.0,-99.9,0.0,200.0,0,0,100,0.00,-26.25,0,0,0,0.00
2014-12-22,-200.0,0.0,200.0,-99.9,0.0,200.0,0,0,100,0.00,-26.25,0,0,0,0.00
2014-12-24,-200.0,0.0,200.0,-99.9,0.0,200.0,0,0,100,0.00,40.00,0,0,0,0.00
2014-12-25,-200.0,0.0,200.0,-99.9,0.0,200.0,0,0,100,0.00,40.00,0,0,0,0.00
2014-12-26,-200.0,0.0,200.0,-99.9,0.0,200.0,0,0,100,0.00,40.00,0,0,0,0.00
2014-12-27,-200.0,0.0,200.0,-99.9,0.0,200.0,0,0,100,0.00,40.00,0,0,0,0.00
2014-12-28,-200.0,0.0,200.0,-99.9,0.0,200.0,0,0,100,0.00,40.00,0,0,0,0.00
2014-12-29,-200.0,0.0,200.0,-99.9,0.0,200.0,0,0,100,0.00,40.00,0,0,0,0.00
2014-12-30,-200.0,0.0,200.0,-99.9,0.0,200.0,0,0,100,0.00,-26.25,0,0,0,0.00
2014-12-31,-200.0,0.0,200.0,-99.9,0.0,200.0,0,0,100,0.00,-26.25,0,0,0,0.00
2015-1-1,-200.0,0.0,200.0,-99.9,0.0,200.0,0,0,100,0.00,-26.25,0,0,0,0.00
2015-1-2,-200.0,0.0,200.0,-99.9,0.0,200.0,0,0,100,0.00,40.00,0,0,0,0.00